Weather History for KJYL - March, 2013

Change the Weather History Date:

Thursday, March 7, 2013

  Actual Average (KSAV) Record (KSAV)
Temperature  
Mean Temperature 46 °F 57 °F  
Max Temperature 61 °F 69 °F 86 °F (1961)
Min Temperature 31 °F 46 °F 25 °F (1954)
Degree Days  
Heating Degree Days 19 8  
Month to date heating degree days 63  
Since 1 July heating degree days 1580  
Cooling Degree Days 0 1  
Month to date cooling degree days 7  
Year to date cooling degree days 17  
Moisture  
Dew Point 36 °F    
Average Humidity 73    
Maximum Humidity 99    
Minimum Humidity 40    
Precipitation  
Precipitation 0.00 in 0.12 in 2.03 in (1944)
Month to date precipitation 0.83  
Year to date precipitation 7.31  
Sea Level Pressure  
Sea Level Pressure 30.20 in    
Wind  
Wind Speed 3 mph (NW)    
Max Wind Speed 12 mph    
Max Gust Speed -    
Visibility 10 miles    
Events      
T = Trace of Precipitation, MM = Missing Value Source: NWS Daily Summary

Daily Weather History Graph

Daily Weather History Graph

Search for Another Location

Airport or City:

Trip Planner

Search our weather history database for the weather conditions in past years. The results will help you decide how hot, cold, wet, or windy it might be!

Date:

Astronomy

Mar. 07, 2013 Rise Set
Actual Time 6:46 AM EST 6:28 PM EST
Civil Twilight 6:21 AM EST 6:53 PM EST
Nautical Twilight 5:53 AM EST 7:21 PM EST
Astronomical Twilight 5:24 AM EST 7:50 PM EST
Moon 3:33 AM EST (3/7) 2:25 PM EST (3/7)
Length of Visible Light 12h 31m
Length of Day
11h 42m
Waning Crescent, 20% of the Moon is Illuminated
Mar 7
Waning Crescent
Mar 11
New
Mar 19
First Quarter
Mar 27
Full
Apr 3
Last Quarter

Hourly Weather History & Observations

Time (EST) Temp. Windchill Dew Point Humidity Pressure Visibility Wind Dir Wind Speed Gust Speed Precip Events Conditions
12:15 AM 39.2 °F 35.0 °F 32.9 °F 78% 30.16 in 10.0 mi NW 5.8 mph - N/A   Clear
12:35 AM 38.7 °F 34.3 °F 32.9 °F 80% 30.16 in 10.0 mi NW 5.8 mph - N/A   Clear
12:55 AM 38.5 °F 34.1 °F 32.9 °F 80% 30.16 in 10.0 mi NNW 5.8 mph - N/A   Clear
1:15 AM 38.3 °F 33.9 °F 32.9 °F 81% 30.16 in 10.0 mi NNW 5.8 mph - N/A   Clear
1:35 AM 37.6 °F 34.0 °F 32.4 °F 81% 30.15 in 10.0 mi NNW 4.6 mph - N/A   Clear
1:55 AM 37.0 °F 33.3 °F 32.7 °F 84% 30.17 in 10.0 mi NW 4.6 mph - N/A   Clear
2:15 AM 36.5 °F 32.7 °F 32.7 °F 86% 30.17 in 10.0 mi NW 4.6 mph - N/A   Clear
2:35 AM 36.1 °F - 32.4 °F 86% 30.17 in 10.0 mi Calm Calm - N/A   Clear
2:55 AM 35.8 °F 33.0 °F 32.5 °F 88% 30.17 in 10.0 mi NW 3.5 mph - N/A   Clear
3:15 AM 34.9 °F 32.0 °F 32.5 °F 91% 30.17 in 10.0 mi NW 3.5 mph - N/A   Clear
3:35 AM 34.7 °F - 32.4 °F 91% 30.17 in 10.0 mi Calm Calm - N/A   Clear
3:55 AM 33.8 °F - 32.2 °F 94% 30.17 in 10.0 mi Calm Calm - N/A   Clear
4:15 AM 32.9 °F - 32.0 °F 96% 30.17 in 10.0 mi Calm Calm - N/A   Clear
4:35 AM 32.9 °F - 32.2 °F 97% 30.17 in 10.0 mi Calm Calm - N/A   Clear
4:55 AM 32.2 °F - 32.0 °F 99% 30.19 in 10.0 mi Calm Calm - N/A   Clear
5:15 AM 32.9 °F - 32.2 °F 97% 30.20 in 10.0 mi Calm Calm - N/A   Clear
5:35 AM 32.7 °F 29.6 °F 32.0 °F 97% 30.21 in 10.0 mi NW 3.5 mph - N/A   Clear
5:55 AM 32.9 °F - 32.0 °F 96% 30.21 in 10.0 mi Calm Calm - N/A   Clear
6:15 AM 31.6 °F - 31.1 °F 98% 30.22 in 7.0 mi Calm Calm - N/A   Clear
6:35 AM 32.4 °F 29.1 °F 32.2 °F 99% 30.23 in 10.0 mi NW 3.5 mph - N/A   Clear
6:55 AM 32.5 °F 27.1 °F 32.0 °F 98% 30.25 in 10.0 mi NW 5.8 mph - N/A   Clear
7:15 AM 32.9 °F - 32.2 °F 97% 30.25 in 7.0 mi Calm Calm - N/A   Clear
7:35 AM 34.3 °F - 32.9 °F 94% 30.24 in 10.0 mi Calm Calm - N/A   Clear
7:55 AM 35.8 °F - 33.3 °F 91% 30.25 in 10.0 mi Calm Calm - N/A   Clear
8:15 AM 38.1 °F - 34.2 °F 86% 30.26 in 10.0 mi Calm Calm - N/A   Clear
8:35 AM 39.9 °F - 34.2 °F 80% 30.26 in 10.0 mi Calm Calm - N/A   Clear
8:55 AM 42.4 °F 39.6 °F 33.8 °F 71% 30.26 in 10.0 mi NE 4.6 mph - N/A   Clear
9:15 AM 43.7 °F 39.7 °F 33.1 °F 66% 30.27 in 10.0 mi NE 6.9 mph - N/A   Clear
9:35 AM 44.2 °F 39.7 °F 33.6 °F 66% 30.26 in 10.0 mi NE 8.1 mph - N/A   Clear
9:55 AM 46.2 °F 43.3 °F 34.0 °F 62% 30.26 in 10.0 mi NE 5.8 mph - N/A   Clear
10:15 AM 47.1 °F - 34.5 °F 62% 30.26 in 10.0 mi NNE 6.9 mph - N/A   Clear
10:35 AM 48.7 °F - 34.5 °F 58% 30.25 in 10.0 mi Calm Calm - N/A   Clear
10:55 AM 49.6 °F - 34.7 °F 56% 30.24 in 10.0 mi North 3.5 mph - N/A   Clear
11:15 AM 50.4 °F - 34.3 °F 54% 30.24 in 10.0 mi NNE 3.5 mph - N/A   Clear
11:35 AM 51.3 °F - 34.7 °F 53% 30.24 in 10.0 mi Calm Calm - N/A   Clear
11:55 AM 52.9 °F - 35.6 °F 52% 30.24 in 10.0 mi Calm Calm - N/A   Clear
12:15 PM 53.4 °F - 36.3 °F 52% 30.23 in 10.0 mi Calm Calm - N/A   Clear
12:35 PM 54.0 °F - 35.4 °F 50% 30.22 in 10.0 mi Calm Calm - N/A   Clear
12:55 PM 54.9 °F - 35.6 °F 48% 30.21 in 10.0 mi WNW 6.9 mph - N/A   Clear
1:15 PM 55.9 °F - 36.5 °F 48% 30.21 in 10.0 mi NW 3.5 mph - N/A   Clear
1:35 PM 57.0 °F - 36.0 °F 45% 30.20 in 10.0 mi NW 4.6 mph - N/A   Clear
1:55 PM 57.2 °F - 36.3 °F 46% 30.19 in 10.0 mi WSW 5.8 mph - N/A   Clear
2:15 PM 58.6 °F - 37.4 °F 45% 30.18 in 10.0 mi WNW 5.8 mph - N/A   Clear
2:35 PM 58.6 °F - 36.1 °F 43% 30.17 in 10.0 mi West 3.5 mph - N/A   Clear
2:55 PM 59.7 °F - 36.7 °F 42% 30.17 in 10.0 mi WNW 11.5 mph - N/A   Clear
3:15 PM 59.2 °F - 35.6 °F 41% 30.17 in 10.0 mi NW 5.8 mph - N/A   Clear
3:35 PM 59.9 °F - 35.8 °F 41% 30.17 in 10.0 mi NW 5.8 mph - N/A   Clear
3:55 PM 60.4 °F - 37.0 °F 42% 30.17 in 10.0 mi North 4.6 mph - N/A   Clear
4:15 PM 60.8 °F - 36.5 °F 40% 30.16 in 10.0 mi West 5.8 mph - N/A   Clear
4:35 PM 60.8 °F - 36.9 °F 41% 30.16 in 10.0 mi Calm Calm - N/A   Clear
4:55 PM 60.8 °F - 36.3 °F 40% 30.16 in 10.0 mi WNW 4.6 mph - N/A   Clear
5:15 PM 61.0 °F - 37.4 °F 42% 30.16 in 10.0 mi NW 5.8 mph - N/A   Clear
5:35 PM 60.6 °F - 36.9 °F 41% 30.16 in 10.0 mi NW 5.8 mph - N/A   Clear
5:55 PM 60.1 °F - 38.3 °F 44% 30.17 in 10.0 mi WNW 4.6 mph - N/A   Clear
6:15 PM 59.0 °F - 37.9 °F 46% 30.17 in 10.0 mi NNW 4.6 mph - N/A   Clear
6:35 PM 57.2 °F - 38.8 °F 50% 30.18 in 10.0 mi Calm Calm - N/A   Clear
6:55 PM 52.7 °F - 42.4 °F 68% 30.18 in 10.0 mi Calm Calm - N/A   Clear
8:35 PM 45.5 °F - 42.3 °F 88% 30.20 in 10.0 mi Calm Calm - N/A   Clear
8:55 PM 44.6 °F - 41.4 °F 88% 30.21 in 10.0 mi Calm Calm - N/A   Clear
9:15 PM 44.2 °F - 41.9 °F 91% 30.21 in 10.0 mi Calm Calm - N/A   Clear
9:35 PM 43.5 °F - 41.4 °F 92% 30.21 in 10.0 mi Calm Calm - N/A   Clear
9:55 PM 42.8 °F - 41.0 °F 93% 30.21 in 10.0 mi Calm Calm - N/A   Clear
10:15 PM 42.4 °F - 41.0 °F 95% 30.21 in 10.0 mi Calm Calm - N/A   Clear
10:35 PM 41.5 °F - 40.5 °F 96% 30.21 in 10.0 mi Calm Calm - N/A   Clear
10:55 PM 41.9 °F - 41.0 °F 97% 30.21 in 10.0 mi Calm Calm - N/A   Clear
11:15 PM 41.4 °F - 40.5 °F 97% 30.20 in 10.0 mi Calm Calm - N/A   Clear
11:35 PM 41.0 °F - 40.1 °F 97% 30.20 in 10.0 mi Calm Calm - N/A   Clear
11:55 PM 40.1 °F - 39.2 °F 97% 30.21 in 10.0 mi Calm Calm - N/A   Clear